Overview Statistics Trail Chart Weather Telemetry Raw packets
 

This is the latest recevied weather packets stored in our database for station/object IW2NIA-3. If no packets are shown the sender has not sent any weather packets the latest 10 day(s).

<< 20 21 22 23 24 25 26 >>
Time Temp. Humidity Pressure Rain* Wind** Luminosity Snow
1788177824 30° C 53% 1014 hPa 0 mm - - -
1788176919 29.44° C 56% 1014.1 hPa 0 mm - - -
1788176014 28.89° C 54% 1014.3 hPa 0 mm - - -
1788175107 28.89° C 53% 1014.4 hPa 0 mm - - -
1788174210 28.33° C 55% 1014.5 hPa 0 mm - - -
1788173325 28.33° C 60% 1014.6 hPa 0 mm - - -
1788172417 27.78° C 57% 1014.7 hPa 0 mm - - -
1788171511 28.33° C 59% 1014.6 hPa 0 mm - - -
1788170620 27.78° C 59% 1014.7 hPa 0 mm - - -
1788169718 27.22° C 63% 1014.8 hPa 0 mm - - -
1788168807 27.22° C 65% 1014.9 hPa 0 mm - - -
1788167922 26.67° C 66% 1014.9 hPa 0 mm - - -
1788167015 26.11° C 64% 1014.9 hPa 0 mm - - -
1788166127 26.11° C 66% 1015 hPa 0 mm - - -
1788165221 25.56° C 66% 1014.9 hPa 0 mm - - -
1788164319 25° C 68% 1014.8 hPa 0 mm - - -
1788163416 25° C 69% 1014.8 hPa 0 mm - - -
1788162515 24.44° C 71% 1014.7 hPa 0 mm - - -
1788161613 24.44° C 70% 1014.7 hPa 0 mm - - -
1788160715 24.44° C 72% 1014.6 hPa 0 mm - - -
1788159811 23.89° C 73% 1014.7 hPa 0 mm - - -
1788158926 23.33° C 75% 1014.6 hPa 0 mm - - -
1788158015 22.78° C 77% 1014.7 hPa 0 mm - - -
1788157110 22.22° C 78% 1014.7 hPa 0 mm - - -
1788156210 21.67° C 78% 1014.7 hPa 0 mm - - -

* Rain latest hour (hover to see other rain measurements)
** Current wind speed in m/s (hover to see current wind gust speed)